This demonstration page uses our WeatherBlox Daily Observations layout. Learn more.

Left ArrowRight Arrow

39.51506, -84.39828

Hourly Observations for March 15, 2016

Temp ( °F °C ) Dew Point ( °F °C ) Humidity (%) Winds ( mph kmh ) Pressure ( in mb ) Visibility ( mi km ) Precip ( " mm )
12:15 am 00:15 Cloudy 60 15.3 55 13 86 86 W 3 6 29.77 1008 10 16 0.00 0.00
12:35 am 00:35 Cloudy 60 15.3 55 13 86 86 Calm 29.77 1008 10 16 0.00 0.00
12:55 am 00:55 Cloudy 60 15.3 55 13 86 86 WSW 3 6 29.80 1009 10 16 0.00 0.00
1:15 am 01:15 Cloudy 60 15.3 56 13.2 87 87 SW 5 7 29.80 1009 10 16 0.00 0.00
1:35 am 01:35 Cloudy 60 15.3 56 13.2 87 87 WSW 5 7 29.80 1009 10 16 0.00 0.00
1:55 am 01:55 Cloudy 60 15.3 55 13 86 86 WSW 3 6 29.80 1009 10 16 0.00 0.00
2:15 am 02:15 Cloudy 60 15.3 55 12.7 85 85 Calm 29.80 1009 10 16 0.00 0.00
2:35 am 02:35 Cloudy 60 15.3 55 12.6 84 84 W 3 6 29.80 1009 10 16 0.00 0.00
2:55 am 02:55 Cloudy 60 15.3 55 12.6 84 84 Calm 29.80 1009 10 16 0.00 0.00
3:15 am 03:15 Cloudy 60 15.3 55 12.5 84 84 W 3 6 29.80 1009 10 16 0.00 0.00
3:35 am 03:35 Cloudy 60 15.3 55 12.5 84 84 WNW 7 11 29.80 1009 10 16 0.00 0.00
3:55 am 03:55 Cloudy 60 15.3 54 12.2 82 82 W 7 11 29.80 1009 10 16 0.00 0.00
4:15 am 04:15 Cloudy 60 15.3 54 12 81 81 W 8 13 29.80 1009 10 16 0.00 0.00
4:35 am 04:35 Cloudy 59 14.9 53 11.5 80 80 W 8 13 29.80 1009 10 16 0.00 0.00
4:55 am 04:55 Cloudy 58 14.3 52 11.2 82 82 W 7 11 29.83 1010 10 16 0.00 0.00
5:15 am 05:15 Cloudy 58 14.2 52 11.1 82 82 W 5 7 29.83 1010 10 16 0.00 0.00
5:35 am 05:35 Cloudy 57 13.8 51 10.7 82 82 WSW 3 6 29.80 1009 10 16 0.00 0.00
5:55 am 05:55 Cloudy 57 13.8 51 10.7 82 82 WSW 7 11 29.83 1010 10 16 0.00 0.00
6:15 am 06:15 Cloudy 57 13.8 51 10.5 81 81 WNW 3 6 29.83 1010 10 16 0.00 0.00
6:35 am 06:35 Cloudy 57 13.8 51 10.7 82 82 Calm 29.83 1010 10 16 0.00 0.00
6:55 am 06:55 Cloudy 57 13.8 52 11 83 83 Calm 29.83 1010 10 16 0.00 0.00
7:15 am 07:15 Cloudy 57 13.8 52 11 83 83 Calm 29.83 1010 10 16 0.00 0.00
7:35 am 07:35 Cloudy 57 13.8 52 11.3 85 85 Calm 29.83 1010 10 16 0.00 0.00
7:55 am 07:55 Cloudy 57 13.8 53 11.5 86 86 Calm 29.83 1010 10 16 0.00 0.00
8:15 am 08:15 Cloudy 57 13.8 53 11.7 87 87 Calm 29.83 1010 10 16 0.00 0.00
8:35 am 08:35 Cloudy 57 13.8 53 11.6 87 87 Calm 29.83 1010 10 16 0.00 0.00
8:55 am 08:55 Cloudy 57 13.8 52 11.3 85 85 Calm 29.83 1010 10 16 0.00 0.00
9:15 am 09:15 Cloudy 57 13.8 52 11.2 84 84 Calm 29.83 1010 10 16 0.00 0.00
9:35 am 09:35 Cloudy 57 13.8 52 11.1 84 84 Calm 29.83 1010 10 16 0.00 0.00
9:55 am 09:55 Cloudy 57 13.8 52 11 83 83 Calm 29.88 1012 10 16 0.00 0.00
10:15 am 10:15 Partly Cloudy 60 15.3 53 11.7 79 79 Calm 29.83 1010 10 16 0.00 0.00
10:35 am 10:35 Partly Cloudy 60 15.3 53 11.5 78 78 Calm 29.83 1010 10 16 0.00 0.00
10:55 am 10:55 Mostly Cloudy 60 15.7 51 10.8 73 73 Calm 29.83 1010 10 16 0.00 0.00
11:15 am 11:15 Cloudy 62 16.5 51 10.6 68 68 Calm 29.83 1010 10 16 0.00 0.00
11:35 am 11:35 Mostly Cloudy 63 17 51 10.5 66 66 Calm 29.83 1010 10 16 0.00 0.00
12:15 pm 12:15 Partly Cloudy 63 17 51 10.4 65 65 Calm 29.83 1010 10 16 0.00 0.00
12:55 pm 12:55 Sunny 69 20.8 55 12.8 60 60 Calm 29.83 1010 10 16 0.00 0.00
1:15 pm 13:15 Sunny 69 20.8 54 12.2 58 58 ESE 7 11 29.83 1010 10 16 0.00 0.00
1:35 pm 13:35 Sunny 69 20.8 54 12 57 57 SSE 8 13 29.83 1010 10 16 0.00 0.00
1:55 pm 13:55 Partly Cloudy 69 20.8 52 11.3 55 55 SW 5 7 29.80 1009 10 16 0.00 0.00
2:15 pm 14:15 Sunny 70 21.3 52 11.2 53 53 SSW 6 9 29.80 1009 10 16 0.00 0.00
2:35 pm 14:35 Sunny 72 22.3 53 11.9 52 52 SSW 6 9 29.80 1009 10 16 0.00 0.00
2:55 pm 14:55 Sunny 74 23.6 55 12.5 50 50 S 6 9 29.77 1008 10 16 0.00 0.00
3:15 pm 15:15 Sunny 74 23.6 54 12.2 49 49 SSW 6 9 29.77 1008 10 16 0.00 0.00
3:35 pm 15:35 Sunny 74 23.6 54 12.4 50 50 S 7 11 29.77 1008 10 16 0.00 0.00
3:55 pm 15:55 Partly Cloudy 74 23.6 54 12 48 48 SE 7 11 29.74 1007 10 16 0.00 0.00
4:15 pm 16:15 Partly Cloudy 74 23.6 52 11.3 46 46 SE 5 7 29.74 1007 10 16 0.00 0.00
4:35 pm 16:35 Sunny 74 23.6 51 10.7 44 44 S 9 15 29.74 1007 10 16 0.00 0.00
4:55 pm 16:55 Sunny 74 23.6 49 9.3 40 40 SE 7 11 29.71 1006 10 16 0.00 0.00
5:15 pm 17:15 Sunny 74 23.6 50 9.9 42 42 SSE 8 13 29.71 1006 10 16 0.00 0.00
5:35 pm 17:35 Sunny 74 23.6 51 10.8 45 45 SE 12 19 29.71 1006 10 16 0.00 0.00
5:55 pm 17:55 Sunny 74 23.6 51 10.8 45 45 ESE 10 17 29.68 1005 10 16 0.00 0.00
6:15 pm 18:15 Sunny 74 23.6 51 10.7 44 44 SE 9 15 29.68 1005 10 16 0.00 0.00
6:35 pm 18:35 Sunny 74 23.6 53 11.5 47 47 ESE 14 22 29.68 1005 10 16 0.00 0.00
6:55 pm 18:55 Sunny 74 23.6 53 11.9 48 48 SE 10 17 29.68 1005 10 16 0.00 0.00
7:15 pm 19:15 Sunny 74 23.6 54 12.2 49 49 SE 8 13 29.68 1005 10 16 0.00 0.00
7:35 pm 19:35 Sunny 74 23.6 55 12.7 51 51 SE 7 11 29.68 1005 10 16 0.00 0.00
7:55 pm 19:55 Clear 72 22.4 53 11.8 51 51 SE 7 11 29.68 1005 10 16 0.00 0.00
8:15 pm 20:15 Clear 72 22.3 53 11.6 51 51 SE 5 7 29.68 1005 10 16 0.00 0.00
8:35 pm 20:35 Clear 71 21.4 52 11 52 52 SE 6 9 29.68 1005 10 16 0.00 0.00
8:55 pm 20:55 Clear 69 20.8 52 11 54 54 ESE 5 7 29.68 1005 10 16 0.00 0.00
9:15 pm 21:15 Clear 69 20.8 53 11.8 57 57 Calm 29.68 1005 10 16 0.00 0.00
9:35 pm 21:35 Clear 69 20.8 55 12.5 59 59 Calm 29.65 1004 10 16 0.00 0.00
9:55 pm 21:55 Clear 64 17.9 53 11.5 66 66 Calm 29.65 1004 10 16 0.00 0.00
10:15 pm 22:15 Clear 62 16.9 52 11.1 69 69 N 5 7 29.65 1004 10 16 0.00 0.00
10:35 pm 22:35 Clear 62 16.7 52 11.1 70 70 NE 5 7 29.65 1004 10 16 0.00 0.00
10:55 pm 22:55 Clear 64 17.5 52 11.2 67 67 E 6 9 29.62 1003 10 16 0.00 0.00
11:15 pm 23:15 Clear 64 17.7 52 11 65 65 Calm 29.62 1003 10 16 0.00 0.00
11:35 pm 23:35 Clear 62 16.8 51 10.7 67 67 Calm 29.62 1003 10 16 0.00 0.00
11:55 pm 23:55 Clear 67 19.5 52 11.2 59 59 ESE 5 7 29.62 1003 10 16 0.00 0.00

Powered by AerisWeather